Location: Decatur(IL)
(39.8400°N, 88.9550°W)
Time: 10:09:56
(UTC-05:00)

Cosmos 1953 - Visible Passes

Search period start: 03 August 2015 00:00
Search period end: 13 August 2015 00:00
Orbit: 544 x 565 km, 82.5° (Epoch: 01 August)

Date Brightness Start Highest point End Pass type
(mag) Time Alt. Az. Time Alt. Az. Time Alt. Az.
03 Aug 4.1 02:29:33 29° NE 02:29:33 29° NE 02:32:02 10° NNE visible
03 Aug 4.4 04:05:22 14° WNW 04:05:22 14° WNW 04:07:16 10° NW visible
04 Aug 4.1 02:26:49 29° NE 02:26:49 29° NE 02:29:09 10° NNE visible
04 Aug 4.6 04:02:39 12° WNW 04:02:39 12° WNW 04:03:56 10° NW visible
05 Aug 4.2 02:24:05 29° NE 02:24:05 29° NE 02:26:14 10° NNE visible
05 Aug 4.7 03:59:55 11° WNW 03:59:55 11° WNW 04:00:28 10° NW visible
06 Aug 4.3 02:21:20 27° NNE 02:21:20 27° NNE 02:23:20 10° NNE visible
07 Aug 4.4 02:18:34 26° NNE 02:18:34 26° NNE 02:20:23 10° NNE visible
08 Aug 4.5 02:15:47 24° NNE 02:15:47 24° NNE 02:17:27 10° N visible
09 Aug 4.7 02:12:59 22° N 02:12:59 22° N 02:14:30 10° N visible
10 Aug 4.8 02:10:10 20° N 02:10:10 20° N 02:11:31 10° N visible
11 Aug 4.9 02:07:21 19° N 02:07:21 19° N 02:08:32 10° N visible
12 Aug 5.0 02:04:31 17° N 02:04:31 17° N 02:05:32 10° N visible
